Location: Artiguedieu
(43.5000°N, 0.5454°E)
Time: 02:24:31
(UTC+00:00)

Transit 2A Rocket - Pass Details

Date: 06 August 2021
Orbit: 586 x 916 km, 66.7° (Epoch: 16 September)

Event Time Altitude Azimuth Distance (km) Brightness Sun altitude
Rises 11:57:47 0° 183° (S) 2,829 8.3 63.0°
Reaches altitude 10° 12:00:09 10° 173° (S) 1,957 7.7 63.0°
Maximum altitude 12:04:01 31° 111° (ESE) 1,120 6.5 63.1°
Drops below altitude 10° 12:08:09 10° 50° (NE) 2,105 7.2 63.0°
Sets 12:10:46 0° 40° (NE) 3,082 7.9 63.0°
